Torna al catalogo

CZ-6A DEB

AttivoPO
NORAD 60679·DEBRIS·🇨🇳 China

Lanciato Aug 6, 2024 da Taiyuan Satellite Launch Center

Loading…

Prossimi Passaggi (prossime 24 ore)

TLE

AggiornatoSource: Space-Track

Epoca: Sep 14, 2026, 08:44 UTC

1 60679U 24140CG  26257.36406683  .00000710  00000-0  22473-3 0  9996
2 60679  89.2952 289.7642 0048872 307.9155  51.7632 14.38547501110051

Traccia CZ-6A DEB in tempo reale con AllMySat

Download on the App Store